Time,TemperatureF,DewpointF,PressureIn,WindDirection,WindDirectionDegrees,WindSpeedMPH,WindSpeedGustMPH,Humidity,HourlyPrecipIn,Conditions,Clouds,dailyrainin,SoftwareType,DateUTC
2013-02-13 00:01:00,44.0,14.0,-100.00,NNE,17,4.0,4.0,29,-99.99,,,-99.99,,2013-02-13 08:01:00,
2013-02-13 00:11:00,43.0,13.0,-100.00,NNE,12,3.0,7.0,29,-99.99,,,-99.99,,2013-02-13 08:11:00,
2013-02-13 00:21:00,44.0,12.0,-100.00,North,8,5.0,7.0,27,-99.99,,,-99.99,,2013-02-13 08:21:00,
2013-02-13 00:31:00,44.0,12.0,-100.00,North,9,5.0,8.0,27,-99.99,,,-99.99,,2013-02-13 08:31:00,
2013-02-13 00:42:00,44.0,11.0,-100.00,North,8,5.0,8.0,26,-99.99,,,-99.99,,2013-02-13 08:42:00,
2013-02-13 00:52:00,44.0,11.0,-100.00,North,4,6.0,8.0,26,-99.99,,,-99.99,,2013-02-13 08:52:00,
2013-02-13 01:01:00,44.0,11.0,-100.00,North,1,5.0,6.0,26,-99.99,,,-99.99,,2013-02-13 09:01:00,
2013-02-13 01:11:00,44.0,12.0,-100.00,NNW,342,4.0,4.0,27,-99.99,,,-99.99,,2013-02-13 09:11:00,
2013-02-13 01:31:00,44.0,12.0,-100.00,North,2,2.0,5.0,27,-99.99,,,-99.99,,2013-02-13 09:31:00,
2013-02-13 01:41:00,44.0,12.0,-100.00,North,356,3.0,5.0,27,-99.99,,,-99.99,,2013-02-13 09:41:00,
2013-02-13 01:51:00,44.0,12.0,-100.00,North,2,4.0,8.0,27,-99.99,,,-99.99,,2013-02-13 09:51:00,
2013-02-13 02:01:00,44.0,12.0,-100.00,North,2,4.0,8.0,27,-99.99,,,-99.99,,2013-02-13 10:01:00,
2013-02-13 02:11:00,42.0,12.0,-100.00,North,359,4.0,8.0,29,-99.99,,,-99.99,,2013-02-13 10:11:00,
2013-02-13 02:21:00,42.0,13.0,-100.00,North,358,5.0,10.0,30,-99.99,,,-99.99,,2013-02-13 10:21:00,
2013-02-13 02:31:00,42.0,12.0,-100.00,North,359,7.0,9.0,29,-99.99,,,-99.99,,2013-02-13 10:31:00,
2013-02-13 02:41:00,42.0,12.0,-100.00,North,359,6.0,7.0,29,-99.99,,,-99.99,,2013-02-13 10:41:00,
2013-02-13 02:51:00,43.0,12.0,-100.00,North,1,5.0,8.0,28,-99.99,,,-99.99,,2013-02-13 10:51:00,
2013-02-13 03:01:00,43.0,12.0,-100.00,NNW,343,6.0,13.0,28,-99.99,,,-99.99,,2013-02-13 11:01:00,
2013-02-13 03:11:00,45.0,10.0,-100.00,North,354,8.0,10.0,24,-99.99,,,-99.99,,2013-02-13 11:11:00,
2013-02-13 03:22:00,44.0,11.0,-100.00,North,359,6.0,7.0,26,-99.99,,,-99.99,,2013-02-13 11:22:00,
2013-02-13 03:31:00,44.0,11.0,-100.00,North,8,6.0,9.0,26,-99.99,,,-99.99,,2013-02-13 11:31:00,
2013-02-13 03:42:00,44.0,11.0,-100.00,North,7,6.0,9.0,26,-99.99,,,-99.99,,2013-02-13 11:42:00,
2013-02-13 03:52:00,44.0,11.0,-100.00,NNE,21,5.0,8.0,26,-99.99,,,-99.99,,2013-02-13 11:52:00,
2013-02-13 04:02:00,44.0,11.0,-100.00,NNE,21,5.0,8.0,26,-99.99,,,-99.99,,2013-02-13 12:02:00,
2013-02-13 04:11:00,45.0,11.0,-100.00,North,2,5.0,8.0,25,-99.99,,,-99.99,,2013-02-13 12:11:00,
2013-02-13 04:31:00,46.0,11.0,-100.00,North,8,5.0,6.0,24,-99.99,,,-99.99,,2013-02-13 12:31:00,
2013-02-13 04:42:00,46.0,11.0,-100.00,NNE,19,4.0,4.0,24,-99.99,,,-99.99,,2013-02-13 12:42:00,
2013-02-13 04:52:00,46.0,11.0,-100.00,NNE,19,3.0,6.0,24,-99.99,,,-99.99,,2013-02-13 12:52:00,
2013-02-13 05:02:00,45.0,11.0,-100.00,North,6,4.0,8.0,25,-99.99,,,-99.99,,2013-02-13 13:02:00,
2013-02-13 05:11:00,44.0,11.0,-100.00,NNW,345,5.0,5.0,26,-99.99,,,-99.99,,2013-02-13 13:11:00,
2013-02-13 05:21:00,45.0,11.0,-100.00,NNW,347,4.0,7.0,25,-99.99,,,-99.99,,2013-02-13 13:21:00,
2013-02-13 05:31:00,45.0,10.0,-100.00,NNW,335,4.0,5.0,24,-99.99,,,-99.99,,2013-02-13 13:31:00,
2013-02-13 05:41:00,46.0,10.0,-100.00,North,353,3.0,4.0,23,-99.99,,,-99.99,,2013-02-13 13:41:00,
2013-02-13 05:51:00,46.0,10.0,-100.00,NE,40,3.0,4.0,23,-99.99,,,-99.99,,2013-02-13 13:51:00,
2013-02-13 06:01:00,45.0,12.0,-100.00,NNE,30,2.0,5.0,26,-99.99,,,-99.99,,2013-02-13 14:01:00,
2013-02-13 06:11:00,44.0,12.0,-100.00,NNE,27,3.0,4.0,27,-99.99,,,-99.99,,2013-02-13 14:11:00,
2013-02-13 06:21:00,43.0,12.0,-100.00,NNE,31,2.0,6.0,28,-99.99,,,-99.99,,2013-02-13 14:21:00,
2013-02-13 06:31:00,44.0,12.0,-100.00,NNE,12,3.0,8.0,27,-99.99,,,-99.99,,2013-02-13 14:31:00,
2013-02-13 06:41:00,45.0,12.0,-100.00,North,357,6.0,7.0,26,-99.99,,,-99.99,,2013-02-13 14:41:00,
2013-02-13 06:52:00,44.0,13.0,-100.00,North,351,6.0,6.0,28,-99.99,,,-99.99,,2013-02-13 14:52:00,
2013-02-13 07:01:00,44.0,13.0,-100.00,North,351,6.0,6.0,28,-99.99,,,-99.99,,2013-02-13 15:01:00,
2013-02-13 07:11:00,45.0,12.0,-100.00,North,9,3.0,5.0,26,-99.99,,,-99.99,,2013-02-13 15:11:00,
2013-02-13 07:31:00,45.0,13.0,-100.00,North,9,4.0,9.0,27,-99.99,,,-99.99,,2013-02-13 15:31:00,
2013-02-13 07:41:00,47.0,15.0,-100.00,NNE,12,5.0,6.0,27,-99.99,,,-99.99,,2013-02-13 15:41:00,
2013-02-13 07:51:00,47.0,15.0,-100.00,NNE,18,4.0,7.0,27,-99.99,,,-99.99,,2013-02-13 15:51:00,
2013-02-13 08:01:00,48.0,16.0,-100.00,NNE,30,4.0,6.0,27,-99.99,,,-99.99,,2013-02-13 16:01:00,
2013-02-13 08:11:00,48.0,16.0,-100.00,NNE,18,3.0,4.0,28,-99.99,,,-99.99,,2013-02-13 16:11:00,
2013-02-13 08:31:00,49.0,16.0,-100.00,NNW,342,3.0,8.0,26,-99.99,,,-99.99,,2013-02-13 16:31:00,
2013-02-13 08:41:00,50.0,16.0,-100.00,North,3,5.0,6.0,26,-99.99,,,-99.99,,2013-02-13 16:41:00,
2013-02-13 08:51:00,51.0,18.0,-100.00,North,355,3.0,5.0,27,-99.99,,,-99.99,,2013-02-13 16:51:00,
2013-02-13 09:01:00,51.0,17.0,-100.00,NNW,338,4.0,6.0,26,-99.99,,,-99.99,,2013-02-13 17:01:00,
2013-02-13 09:11:00,52.0,19.0,-100.00,NW,316,4.0,8.0,27,-99.99,,,-99.99,,2013-02-13 17:11:00,
2013-02-13 09:21:00,52.0,18.0,-100.00,WNW,295,2.0,6.0,26,-99.99,,,-99.99,,2013-02-13 17:21:00,
2013-02-13 09:31:00,52.0,19.0,-100.00,WNW,294,3.0,6.0,27,-99.99,,,-99.99,,2013-02-13 17:31:00,
2013-02-13 09:41:00,53.0,20.0,-100.00,WNW,299,2.0,7.0,27,-99.99,,,-99.99,,2013-02-13 17:41:00,
2013-02-13 09:52:00,54.0,20.0,-100.00,West,266,4.0,6.0,26,-99.99,,,-99.99,,2013-02-13 17:52:00,
2013-02-13 10:01:00,54.0,20.0,-100.00,West,266,4.0,6.0,26,-99.99,,,-99.99,,2013-02-13 18:01:00,
2013-02-13 10:11:00,55.0,21.0,-100.00,WSW,240,3.0,8.0,26,-99.99,,,-99.99,,2013-02-13 18:11:00,
2013-02-13 10:22:00,54.0,19.0,-100.00,SSW,206,3.0,9.0,25,-99.99,,,-99.99,,2013-02-13 18:22:00,
2013-02-13 10:32:00,54.0,19.0,-100.00,SW,235,5.0,7.0,25,-99.99,,,-99.99,,2013-02-13 18:32:00,
2013-02-13 10:41:00,55.0,19.0,-100.00,SW,233,4.0,6.0,24,-99.99,,,-99.99,,2013-02-13 18:41:00,
2013-02-13 10:51:00,55.0,19.0,-100.00,SSW,206,3.0,8.0,24,-99.99,,,-99.99,,2013-02-13 18:51:00,
2013-02-13 11:01:00,55.0,19.0,-100.00,SSW,206,3.0,8.0,24,-99.99,,,-99.99,,2013-02-13 19:01:00,
2013-02-13 11:11:00,56.0,21.0,-100.00,NW,304,4.0,10.0,25,-99.99,,,-99.99,,2013-02-13 19:11:00,
2013-02-13 11:21:00,56.0,21.0,-100.00,WNW,300,4.0,9.0,25,-99.99,,,-99.99,,2013-02-13 19:21:00,
2013-02-13 11:31:00,56.0,21.0,-100.00,WNW,284,4.0,8.0,25,-99.99,,,-99.99,,2013-02-13 19:31:00,
2013-02-13 11:41:00,56.0,21.0,-100.00,WNW,296,4.0,9.0,25,-99.99,,,-99.99,,2013-02-13 19:41:00,
2013-02-13 11:51:00,57.0,22.0,-100.00,NW,307,5.0,9.0,25,-99.99,,,-99.99,,2013-02-13 19:51:00,
2013-02-13 12:01:00,57.0,22.0,-100.00,NW,307,5.0,9.0,25,-99.99,,,-99.99,,2013-02-13 20:01:00,
2013-02-13 12:11:00,57.0,22.0,-100.00,NW,307,5.0,9.0,25,-99.99,,,-99.99,,2013-02-13 20:11:00,
2013-02-13 12:21:00,57.0,21.0,-100.00,WNW,302,4.0,10.0,24,-99.99,,,-99.99,,2013-02-13 20:21:00,
2013-02-13 12:31:00,57.0,20.0,-100.00,WNW,298,5.0,9.0,23,-99.99,,,-99.99,,2013-02-13 20:31:00,
2013-02-13 12:41:00,57.0,20.0,-100.00,NW,304,5.0,9.0,23,-99.99,,,-99.99,,2013-02-13 20:41:00,
2013-02-13 12:52:00,58.0,20.0,-100.00,WNW,297,5.0,10.0,23,-99.99,,,-99.99,,2013-02-13 20:52:00,
2013-02-13 13:01:00,58.0,21.0,-100.00,WNW,287,5.0,10.0,24,-99.99,,,-99.99,,2013-02-13 21:01:00,
2013-02-13 13:11:00,58.0,22.0,-100.00,NW,312,5.0,11.0,25,-99.99,,,-99.99,,2013-02-13 21:11:00,
2013-02-13 13:21:00,58.0,24.0,-100.00,WNW,285,6.0,10.0,27,-99.99,,,-99.99,,2013-02-13 21:21:00,
2013-02-13 13:31:00,58.0,25.0,-100.00,WNW,290,4.0,9.0,28,-99.99,,,-99.99,,2013-02-13 21:31:00,
2013-02-13 13:42:00,58.0,25.0,-100.00,WNW,299,5.0,11.0,28,-99.99,,,-99.99,,2013-02-13 21:42:00,
2013-02-13 13:52:00,58.0,25.0,-100.00,WNW,299,5.0,9.0,28,-99.99,,,-99.99,,2013-02-13 21:52:00,
2013-02-13 14:02:00,58.0,25.0,-100.00,WNW,299,5.0,9.0,28,-99.99,,,-99.99,,2013-02-13 22:02:00,
2013-02-13 14:11:00,58.0,25.0,-100.00,WNW,282,5.0,11.0,28,-99.99,,,-99.99,,2013-02-13 22:11:00,
2013-02-13 14:21:00,58.0,26.0,-100.00,West,277,5.0,11.0,29,-99.99,,,-99.99,,2013-02-13 22:21:00,
2013-02-13 14:31:00,58.0,26.0,-100.00,West,278,5.0,12.0,29,-99.99,,,-99.99,,2013-02-13 22:31:00,
2013-02-13 14:42:00,58.0,26.0,-100.00,WNW,284,5.0,11.0,29,-99.99,,,-99.99,,2013-02-13 22:42:00,
2013-02-13 14:51:00,58.0,27.0,-100.00,West,281,5.0,10.0,30,-99.99,,,-99.99,,2013-02-13 22:51:00,
2013-02-13 15:01:00,58.0,28.0,-100.00,West,269,5.0,11.0,32,-99.99,,,-99.99,,2013-02-13 23:01:00,
2013-02-13 15:11:00,58.0,29.0,-100.00,West,280,5.0,12.0,33,-99.99,,,-99.99,,2013-02-13 23:11:00,
2013-02-13 15:21:00,58.0,31.0,-100.00,West,281,5.0,12.0,35,-99.99,,,-99.99,,2013-02-13 23:21:00,
2013-02-13 15:31:00,57.0,31.0,-100.00,WNW,285,4.0,11.0,37,-99.99,,,-99.99,,2013-02-13 23:31:00,
2013-02-13 15:41:00,57.0,32.0,-100.00,WNW,285,5.0,11.0,38,-99.99,,,-99.99,,2013-02-13 23:41:00,
2013-02-13 15:52:00,57.0,32.0,-100.00,West,279,4.0,10.0,39,-99.99,,,-99.99,,2013-02-13 23:52:00,
2013-02-13 16:01:00,57.0,32.0,-100.00,WNW,301,5.0,10.0,39,-99.99,,,-99.99,,2013-02-14 00:01:00,
2013-02-13 16:11:00,56.0,32.0,-100.00,NW,313,5.0,12.0,40,-99.99,,,-99.99,,2013-02-14 00:11:00,
2013-02-13 16:21:00,56.0,32.0,-100.00,WNW,301,6.0,10.0,40,-99.99,,,-99.99,,2013-02-14 00:21:00,
2013-02-13 16:31:00,56.0,31.0,-100.00,WNW,289,5.0,9.0,39,-99.99,,,-99.99,,2013-02-14 00:31:00,
2013-02-13 16:41:00,56.0,31.0,-100.00,WNW,288,4.0,9.0,39,-99.99,,,-99.99,,2013-02-14 00:41:00,
2013-02-13 16:51:00,55.0,31.0,-100.00,NW,304,4.0,9.0,39,-99.99,,,-99.99,,2013-02-14 00:51:00,
2013-02-13 17:01:00,55.0,31.0,-100.00,NW,311,5.0,9.0,40,-99.99,,,-99.99,,2013-02-14 01:01:00,
2013-02-13 17:11:00,54.0,31.0,-100.00,NW,306,5.0,8.0,41,-99.99,,,-99.99,,2013-02-14 01:11:00,
2013-02-13 17:21:00,54.0,31.0,-100.00,WNW,297,4.0,8.0,42,-99.99,,,-99.99,,2013-02-14 01:21:00,
2013-02-13 17:31:00,53.0,31.0,-100.00,WNW,291,3.0,7.0,43,-99.99,,,-99.99,,2013-02-14 01:31:00,
2013-02-13 17:41:00,53.0,31.0,-100.00,WNW,291,3.0,7.0,43,-99.99,,,-99.99,,2013-02-14 01:41:00,
2013-02-13 17:51:00,51.0,31.0,-100.00,NW,305,3.0,6.0,46,-99.99,,,-99.99,,2013-02-14 01:51:00,
2013-02-13 18:01:00,50.0,31.0,-100.00,NW,311,3.0,7.0,47,-99.99,,,-99.99,,2013-02-14 02:01:00,
2013-02-13 18:11:00,50.0,32.0,-100.00,NW,313,4.0,7.0,49,-99.99,,,-99.99,,2013-02-14 02:11:00,
2013-02-13 18:21:00,49.0,32.0,-100.00,NW,315,5.0,8.0,52,-99.99,,,-99.99,,2013-02-14 02:21:00,
2013-02-13 18:31:00,49.0,34.0,-100.00,NW,313,6.0,8.0,56,-99.99,,,-99.99,,2013-02-14 02:31:00,
2013-02-13 18:41:00,49.0,34.0,-100.00,NW,313,6.0,8.0,56,-99.99,,,-99.99,,2013-02-14 02:41:00,
2013-02-13 18:51:00,49.0,34.0,-100.00,NW,313,6.0,8.0,56,-99.99,,,-99.99,,2013-02-14 02:51:00,
2013-02-13 19:02:00,47.0,35.0,-100.00,NW,326,5.0,5.0,63,-99.99,,,-99.99,,2013-02-14 03:02:00,
2013-02-13 19:11:00,47.0,35.0,-100.00,NW,325,4.0,6.0,64,-99.99,,,-99.99,,2013-02-14 03:11:00,
2013-02-13 19:21:00,47.0,36.0,-100.00,NW,324,5.0,6.0,66,-99.99,,,-99.99,,2013-02-14 03:21:00,
2013-02-13 19:31:00,47.0,36.0,-100.00,NW,323,5.0,5.0,65,-99.99,,,-99.99,,2013-02-14 03:31:00,
2013-02-13 19:42:00,47.0,36.0,-100.00,NNW,341,4.0,5.0,65,-99.99,,,-99.99,,2013-02-14 03:42:00,
2013-02-13 19:51:00,48.0,36.0,-100.00,NNW,345,4.0,5.0,63,-99.99,,,-99.99,,2013-02-14 03:51:00,
2013-02-13 20:01:00,48.0,35.0,-100.00,North,354,4.0,6.0,60,-99.99,,,-99.99,,2013-02-14 04:01:00,
2013-02-13 20:11:00,48.0,34.0,-100.00,North,349,5.0,6.0,57,-99.99,,,-99.99,,2013-02-14 04:11:00,
2013-02-13 20:21:00,48.0,33.0,-100.00,North,351,4.0,5.0,56,-99.99,,,-99.99,,2013-02-14 04:21:00,
2013-02-13 20:31:00,49.0,32.0,-100.00,NNW,343,4.0,5.0,52,-99.99,,,-99.99,,2013-02-14 04:31:00,
2013-02-13 20:41:00,50.0,31.0,-100.00,West,269,3.0,3.0,47,-99.99,,,-99.99,,2013-02-14 04:41:00,
2013-02-13 20:51:00,50.0,29.0,-100.00,SSW,212,1.0,3.0,45,-99.99,,,-99.99,,2013-02-14 04:51:00,
2013-02-13 21:01:00,50.0,30.0,-100.00,SW,216,1.0,2.0,46,-99.99,,,-99.99,,2013-02-14 05:01:00,
2013-02-13 21:11:00,50.0,30.0,-100.00,SW,230,1.0,3.0,46,-99.99,,,-99.99,,2013-02-14 05:11:00,
2013-02-13 21:21:00,51.0,30.0,-100.00,WNW,297,2.0,3.0,45,-99.99,,,-99.99,,2013-02-14 05:21:00,
2013-02-13 21:31:00,51.0,30.0,-100.00,NW,308,1.0,4.0,45,-99.99,,,-99.99,,2013-02-14 05:31:00,
2013-02-13 21:41:00,51.0,30.0,-100.00,NW,315,3.0,3.0,45,-99.99,,,-99.99,,2013-02-14 05:41:00,
2013-02-13 21:51:00,49.0,30.0,-100.00,NNW,348,2.0,7.0,48,-99.99,,,-99.99,,2013-02-14 05:51:00,
2013-02-13 22:01:00,47.0,29.0,-100.00,NNW,345,5.0,7.0,49,-99.99,,,-99.99,,2013-02-14 06:01:00,
2013-02-13 22:11:00,49.0,29.0,-100.00,North,7,5.0,5.0,45,-99.99,,,-99.99,,2013-02-14 06:11:00,
2013-02-13 22:21:00,50.0,28.0,-100.00,North,8,3.0,4.0,42,-99.99,,,-99.99,,2013-02-14 06:21:00,
2013-02-13 22:31:00,49.0,26.0,-100.00,North,8,3.0,5.0,40,-99.99,,,-99.99,,2013-02-14 06:31:00,
2013-02-13 22:41:00,49.0,26.0,-100.00,ENE,63,3.0,4.0,40,-99.99,,,-99.99,,2013-02-14 06:41:00,
2013-02-13 22:51:00,52.0,25.0,-100.00,East,95,2.0,4.0,34,-99.99,,,-99.99,,2013-02-14 06:51:00,
2013-02-13 23:01:00,51.0,25.0,-100.00,NE,51,2.0,3.0,36,-99.99,,,-99.99,,2013-02-14 07:01:00,
2013-02-13 23:11:00,50.0,25.0,-100.00,North,354,2.0,4.0,38,-99.99,,,-99.99,,2013-02-14 07:11:00,
2013-02-13 23:21:00,51.0,25.0,-100.00,NE,37,3.0,3.0,36,-99.99,,,-99.99,,2013-02-14 07:21:00,
2013-02-13 23:31:00,53.0,25.0,-100.00,SW,229,1.0,2.0,34,-99.99,,,-99.99,,2013-02-14 07:31:00,
2013-02-13 23:41:00,53.0,25.0,-100.00,West,274,1.0,3.0,34,-99.99,,,-99.99,,2013-02-14 07:41:00,
2013-02-13 23:51:00,51.0,24.0,-100.00,NNW,348,2.0,3.0,35,-99.99,,,-99.99,,2013-02-14 07:51:00,